#timestamp,LO_Frequency,Hit,StdDev 
1689688815.4,286046999.3,N
1689688835.3,286046998.4,N
1689688855.1,286046998.2,N
1689688875.9,286047000.7,N
1689688895.7,286047000.6,N
1689688915.5,286046999.0,N
1689688935.4,286046999.4,N
1689688955.2,286046999.1,N
1689688975.0,286046999.4,N
1689688975.9,286046999.4,N
1689688995.8,286046997.7,N
1689689015.6,286046999.2,N
1689689035.5,286046999.4,N
1689689055.3,286046998.9,N
1689689075.1,286046996.5,Y
1689689095.9,286046996.8,P
1689689115.7,286046997.8,N
1689689135.5,286046997.2,N
1689689155.4,286046998.4,N
1689689175.2,286047000.8,N
1689689195.1,286047001.2,N
1689689196.0,286047001.2,N
1689689215.8,286047001.1,N
1689689235.6,286047001.0,N
1689689255.5,286046998.7,N
1689689275.3,286047000.4,N
1689689295.1,286047000.8,N
1689689315.9,286047000.6,N
1689689335.7,286046998.5,N
1689689355.6,286047000.7,N
1689689375.4,286046998.1,N
1689689395.2,286047001.2,N
1689689415.1,286046998.9,N
1689689416.0,286046998.9,N
1689689435.8,286047001.2,N
1689689455.6,286047000.8,N
1689689475.5,286047000.7,N
1689689495.3,286047001.1,N
1689689515.2,286047000.4,N
1689689535.9,286047002.8,N
1689689555.7,286046999.9,N
1689689575.6,286047000.8,N
1689689595.4,286046998.2,N
1689689615.2,286046999.6,N
1689689635.1,286046999.0,N
1689689636.0,286046999.0,N
1689689655.8,286046999.5,N
1689689675.7,286046999.2,N
1689689695.5,286046996.9,N
1689689715.3,286046998.8,N
1689689735.2,286046996.8,N
1689689755.0,286046997.3,N
1689689755.9,286046997.3,N
1689689775.8,286046997.4,N
1689689795.6,286046995.6,Y
1689689815.4,286046996.7,P
1689689835.3,286046996.9,N
1689689855.1,286046998.2,N
1689689875.8,286046998.3,N
1689689895.7,286047000.7,N
1689689915.5,286046999.2,N
1689689935.4,286046998.1,N
1689689955.2,286047000.6,N
1689689975.0,286047000.2,N
1689689975.9,286047000.2,N
1689689995.8,286047000.3,N
1689690015.6,286047000.9,N
1689690035.4,286046999.8,N
1689690055.3,286047002.2,N
1689690075.1,286047002.8,N
1689690095.9,286046999.8,N
1689690115.7,286047002.6,N
1689690135.5,286047000.0,N
1689690155.4,286046999.9,N
1689690175.2,286046998.6,N
1689690195.0,286046999.3,N
1689690195.9,286046999.3,N
1689690215.8,286046999.3,N
1689690235.6,286046998.7,N
1689690255.5,286046999.5,N
1689690275.3,286046995.0,Y
1689690295.1,286046995.5,P
1689690315.9,286046994.6,N
1689690335.7,286046994.0,N
1689690355.5,286046995.8,N
1689690375.4,286046996.1,N
1689690395.2,286046995.5,N
1689690415.1,286046993.3,Y
1689690416.0,286046993.3,P
1689690435.8,286046999.5,N
1689690455.6,286046999.4,N
1689690475.5,286046997.0,N
1689690495.3,286046997.0,N
1689690515.1,286046996.8,N
1689690535.9,286046999.6,N
1689690555.7,286046997.1,N
1689690575.6,286046995.0,N
1689690595.4,286046995.3,N
1689690615.2,286046995.2,N
1689690635.1,286046997.8,N
1689690636.0,286046997.8,N
1689690655.8,286046996.9,N
1689690675.7,286046999.6,N
1689690695.5,286046997.8,N
1689690715.3,286046995.1,N
1689690735.2,286046995.7,N
1689690755.9,286046995.4,N
1689690775.7,286046995.4,N
1689690795.6,286046993.8,Y
1689690815.4,286046998.3,P
1689690835.3,286046999.1,N
1689690855.1,286046999.1,N
1689690856.0,286046999.1,N
1689690875.8,286046998.4,N
1689690895.7,286046998.4,N
1689690915.5,286046999.2,N
1689690935.3,286046999.2,N
1689690955.2,286047001.0,N
1689690975.0,286047000.9,N
1689690975.9,286047000.9,N
1689690995.8,286046999.8,N
1689691015.6,286047000.3,N
1689691035.4,286047002.8,N
1689691055.3,286046999.9,N
1689691075.1,286047000.3,N
1689691095.8,286047000.5,N
1689691115.7,286047000.5,N
1689691135.5,286046998.5,N
1689691155.4,286046998.5,N
1689691175.2,286046998.4,N
1689691195.0,286046997.4,N
1689691195.9,286046997.4,N
1689691215.8,286046999.2,N
1689691235.6,286046999.6,N
1689691255.4,286046998.7,N
1689691275.3,286047000.6,N
1689691295.1,286046998.4,N
1689691315.9,286046997.9,N
1689691335.7,286046994.9,Y
1689691355.5,286046997.5,P
1689691375.4,286046996.6,P
1689691395.2,286046998.9,N
1689691415.0,286046999.6,N
1689691415.9,286046999.6,N
1689691435.8,286046996.8,N
1689691455.6,286046996.5,N
1689691475.5,286046998.7,N
1689691495.3,286046997.7,N
1689691515.1,286046996.5,N
1689691535.9,286046997.6,N
1689691555.7,286046997.9,N
1689691575.5,286046995.1,Y
1689691595.4,286046996.7,P
1689691615.2,286046997.0,P
1689691635.1,286046997.1,P
1689691636.0,286046997.1,Y
1689691655.8,286047001.0,P
1689691675.6,286046999.1,N
1689691695.5,286046997.1,N
1689691715.3,286046997.1,N
1689691735.2,286046996.9,N
1689691755.9,286046996.8,N
1689691775.7,286046996.9,N
1689691795.6,286046996.7,N
1689691815.4,286046999.5,N
1689691835.2,286046998.9,N
1689691855.1,286046998.9,N
1689691856.0,286046998.9,N
1689691875.8,286046999.1,N
1689691895.7,286046999.3,N
1689691915.5,286046998.8,N
1689691935.3,286047000.7,N
1689691955.2,286046998.6,N
1689691975.0,286046998.6,N
1689691975.9,286046998.6,N
1689691995.8,286046998.5,N
1689692015.6,286046998.6,N
1689692035.4,286046998.4,N
1689692055.3,286046998.3,N
1689692075.1,286046996.6,Y
1689692095.8,286046998.4,P
1689692115.7,286046999.1,P
1689692135.5,286046999.2,N
1689692155.4,286046997.6,Y
1689692175.2,286046997.0,P
1689692195.0,286046998.0,N
1689692195.9,286046998.0,N
1689692215.8,286046997.7,Y
1689692235.6,286046998.9,P
1689692255.5,286046999.0,N
1689692275.3,286046998.9,N
1689692295.1,286046998.5,Y
1689692315.9,286047000.0,P
1689692335.7,286047000.0,N
1689692355.5,286047000.9,N
1689692375.4,286046998.3,N
1689692395.2,286046998.9,N
